Temp
57 56 56 55 57 56 55 55 55 55 55 56 56 56 57 55 53 53 52 50 52 50
55 54 55 54 55 56 56 56 55 56 55 54 55 55 56 54 53 53 52 51 51 54
54 54 54 53 52 53 53 54 53 54 54 53 53 54 54 54 54 53 52 53 52 49
52 52 51 50 50 52 51 52 52 53 52 51 51 51 52 51 52 52 51 52 51 48
48 48 49 48 48 47 49 50 51 51 51 50 50 49 49 48 48 49 45 46 47 47
46 45 44 46 46 46 47 47 47 48 47 45 44 42 43 44 43 42 42 43 43 43
44 44 44 43 44 45 46 42 41 39 37 38 40 41 40 41 39 38 36 37 38 36
43 43 44 43 44 44 44 43 38 38 39 40 40 41 39 39 37 37 35 35 37 38
41 41 41 42 42 42 41 40 40 40 40 40 41 39 39 39 38 37 36 35 37 38
39 38 38 38 38 37 37 39 39 39 40 39 38 38 38 38 38 36 35 35 35 37
36 34 34 35 34 33 35 34 34 34 35 35 37 37 37 37 37 35 35 34 35 34
34 33 33 32 32 33 33 32 33 33 35 35 36 37 36 35 33 32 32 34 34 35
34 34 33 33 33 33 33 33 33 33 34 35 34 35 35 34 33 32 31 32 34 36
33 34 34 34 34 33 33 33 32 32 32 32 33 34 36 37 35 33 31 32 31 33
MSLP
1006.14 1006.48 1006.49 1006.75 1006.98 1007.49 1007.89 1008.19 1008.81 1009.23 1009.84 1010.55 1011.16 1012.12 1013.11 1013.84 1014.28 1014.78 1015.18 1016.24 1016.94 1017.46
1005.14 1005.67 1005.96 1006.32 1006.68 1006.68 1006.90 1007.44 1007.90 1008.44 1009.06 1009.68 1010.66 1010.94 1011.81 1013.11 1013.78 1014.36 1014.80 1015.59 1016.18 1016.67
1004.06 1004.57 1004.83 1005.37 1005.93 1006.38 1006.45 1006.34 1006.97 1007.56 1008.22 1008.98 1010.03 1010.66 1011.11 1012.17 1013.10 1013.87 1014.57 1015.06 1015.50 1015.90
1003.48 1003.99 1004.40 1005.08 1005.54 1005.93 1006.22 1006.18 1006.27 1006.84 1007.39 1008.25 1009.53 1010.11 1010.83 1011.48 1012.41 1013.37 1014.34 1014.77 1014.98 1015.41
1003.20 1003.56 1004.07 1004.37 1004.65 1005.60 1005.61 1005.90 1005.94 1006.36 1006.98 1007.87 1008.40 1009.79 1010.23 1011.12 1012.06 1013.02 1014.20 1015.53 1015.28 1015.41
1003.49 1003.70 1003.76 1004.13 1003.99 1004.30 1005.06 1005.56 1005.86 1006.08 1006.77 1007.53 1008.35 1009.44 1010.23 1011.13 1012.30 1013.14 1014.68 1015.57 1015.76 1016.47
1002.50 1003.59 1003.82 1003.88 1003.81 1003.99 1004.55 1005.38 1005.70 1005.89 1006.75 1007.74 1008.57 1009.33 1010.46 1011.31 1012.57 1013.48 1014.46 1015.07 1016.31 1016.92
1003.35 1003.46 1003.09 1003.13 1003.58 1003.77 1004.22 1004.85 1005.55 1005.63 1006.56 1007.19 1008.44 1009.55 1010.36 1011.55 1012.24 1013.29 1015.10 1015.57 1016.71 1017.21
1003.27 1003.20 1003.11 1003.21 1003.42 1003.73 1004.31 1004.81 1005.43 1005.91 1006.38 1007.29 1008.25 1009.42 1010.09 1011.13 1012.19 1013.44 1014.98 1016.36 1017.33 1017.43
1003.48 1003.39 1003.31 1003.32 1003.53 1004.00 1004.48 1004.90 1005.47 1006.08 1006.67 1007.55 1008.62 1009.40 1010.65 1011.56 1012.75 1013.89 1015.31 1016.29 1017.11 1017.83
1004.16 1004.08 1003.90 1003.93 1004.19 1004.64 1005.05 1005.52 1006.05 1006.83 1007.62 1008.35 1009.11 1009.89 1011.08 1011.99 1013.22 1014.46 1015.46 1016.47 1016.33 1017.95
1004.46 1004.49 1004.71 1004.84 1005.11 1005.48 1005.84 1006.32 1006.90 1007.53 1008.08 1008.86 1009.93 1010.43 1011.71 1012.62 1013.65 1014.88 1015.69 1016.71 1017.11 1017.89
1004.80 1004.92 1005.06 1005.40 1005.76 1006.19 1006.54 1006.97 1007.54 1008.39 1009.08 1009.66 1010.66 1011.51 1012.41 1013.16 1014.06 1014.78 1015.89 1017.37 1018.23 1018.45
1005.12 1005.25 1005.52 1005.93 1006.35 1006.76 1007.22 1007.74 1008.42 1009.14 1009.96 1010.60 1011.35 1012.18 1012.95 1013.37 1013.69 1014.85 1016.43 1017.26 1018.15 1018.78
Wind_Speed
12 7 8 9 10 10 11 14 17 18 16 17 16 14 15 13 11 16 14 14 12 6
12 11 10 9 8 9 12 12 16 18 18 16 17 15 17 13 14 14 15 13 11 9
14 14 12 9 10 10 9 12 13 17 17 15 16 14 17 13 15 15 12 11 13 8
12 11 7 7 8 9 7 10 13 16 16 16 15 13 14 11 13 12 10 11 12 9
7 8 9 10 11 8 10 10 13 15 14 13 14 12 13 12 10 12 8 7 9 10
5 6 8 11 11 11 10 10 10 12 12 12 12 11 10 12 10 11 9 6 8 5
6 8 9 7 7 9 11 9 10 12 12 11 10 13 13 14 13 12 11 7 7 3
5 6 7 7 9 10 11 12 10 12 13 16 16 12 16 15 15 15 11 9 6 5
4 5 7 8 10 9 10 12 14 15 17 16 10 23 23 18 14 14 13 11 10 10
5 5 4 6 8 9 11 12 13 15 16 15 15 26 25 23 14 14 14 13 12 9
2 2 3 6 8 7 9 12 12 12 13 15 14 25 24 22 14 13 13 11 12 12
3 5 5 6 7 7 10 9 9 10 14 15 16 24 23 17 13 12 12 9 10 11
3 5 6 7 8 6 8 9 9 9 9 15 14 22 20 16 10 13 10 9 10 14
4 5 8 8 8 8 9 10 11 12 10 11 13 15 19 19 12 11 11 10 9 8
Wind_Direction
203 214 213 205 197 197 202 201 194 194 190 193 186 184 192 191 181 185 183 182 190 179
195 198 205 208 215 213 201 200 194 194 191 187 195 186 181 190 187 186 185 187 179 181
197 200 200 186 199 210 210 188 190 189 188 185 188 188 182 189 188 185 187 191 181 165
195 196 188 202 202 209 210 194 182 188 180 177 187 180 184 175 185 185 185 183 171 151
165 164 180 191 187 198 199 195 190 182 177 177 168 179 173 163 170 166 151 178 146 148
179 191 197 205 193 180 187 184 180 174 170 155 149 134 132 134 129 122 127 149 122 142
199 215 210 210 190 179 173 167 163 144 135 124 131 128 126 122 121 106 110 114 122 102
254 230 211 199 208 196 178 167 155 141 141 139 142 136 129 129 123 115 111 97 100 105
233 228 213 199 183 171 163 156 158 156 147 142 134 140 130 130 123 120 119 121 113 104
239 219 179 156 146 145 150 151 151 146 144 138 134 134 131 133 132 127 132 132 130 120
87 91 89 116 127 121 132 135 134 129 131 133 136 128 128 125 125 126 127 137 126 137
134 132 122 117 120 124 126 124 124 127 133 130 136 133 132 126 129 136 131 129 129 137
132 130 122 120 116 112 118 113 112 111 118 131 135 135 135 137 140 132 124 125 140 141
121 127 123 118 120 118 120 116 120 118 121 125 140 144 149 148 133 135 138 145 142 148